| time (UTC) | temp C | wind direction | speed KPH | gust KPH | rain 1hr cm | rain 24hr cm | rain mn cm | humidity % | barometer mb |
| 20260510105528 | 12 | 25 | 3.2 | 0.0 | 0.00 | 0.00 | 0.00 | 95 | 1010.7 |
| 20260510105027 | 12 | 43 | 3.2 | 0.0 | 0.00 | 0.00 | 0.00 | 95 | 1010.7 |
| 20260510104533 | 12 | 25 | 3.2 | 0.0 | 0.00 | 0.00 | 0.00 | 95 | 1010.7 |
| 20260510104026 | 12 | 55 | 3.2 | 0.0 | 0.00 | 0.00 | 0.00 | 95 | 1010.7 |
| 20260510103528 | 12 | 51 | 3.2 | 0.0 | 0.00 | 0.00 | 0.00 | 95 | 1010.7 |
| 20260510103028 | 12 | 65 | 1.6 | 0.0 | 0.00 | 0.00 | 0.00 | 95 | 1010.7 |
| 20260510102527 | 12 | 133 | 0.0 | 0.0 | 0.00 | 0.00 | 0.00 | 95 | 1010.6 |
| 20260510102027 | 12 | 133 | 0.0 | 0.0 | 0.00 | 0.00 | 0.00 | 95 | 1010.6 |
| 20260510101526 | 12 | 133 | 0.0 | 0.0 | 0.00 | 0.00 | 0.00 | 95 | 1010.6 |
| 20260510101026 | 12 | 132 | 0.0 | 0.0 | 0.00 | 0.00 | 0.00 | 95 | 1010.9 |
| 20260510100525 | 12 | 257 | 0.0 | 0.0 | 0.00 | 0.00 | 0.00 | 95 | 1010.9 |
| 20260510100024 | 12 | 257 | 0.0 | 0.0 | 0.00 | 0.00 | 0.00 | 95 | 1010.9 |
| 20260510095524 | 12 | 123 | 0.0 | 0.0 | 0.00 | 0.00 | 0.00 | 95 | 1010.9 |
| 20260510095023 | 12 | 123 | 0.0 | 0.0 | 0.00 | 0.00 | 0.00 | 95 | 1010.9 |
| 20260510094534 | 12 | 123 | 0.0 | 0.0 | 0.00 | 0.00 | 0.00 | 95 | 1010.9 |
| 20260510094023 | 12 | 123 | 0.0 | 0.0 | 0.00 | 0.00 | 0.00 | 95 | 1010.9 |
| 20260510093523 | 12 | 123 | 0.0 | 0.0 | 0.00 | 0.00 | 0.00 | 95 | 1010.9 |
| 20260510093023 | 12 | 123 | 0.0 | 0.0 | 0.00 | 0.00 | 0.00 | 95 | 1010.9 |
| 20260510092523 | 12 | 123 | 0.0 | 0.0 | 0.00 | 0.00 | 0.00 | 95 | 1010.9 |
| 20260510092022 | 12 | 123 | 0.0 | 0.0 | 0.00 | 0.00 | 0.00 | 95 | 1010.9 |
| 20260510091523 | 12 | 123 | 1.6 | 0.0 | 0.00 | 0.00 | 0.00 | 95 | 1010.9 |
| 20260510091023 | 12 | 123 | 0.0 | 0.0 | 0.00 | 0.00 | 0.00 | 95 | 1010.9 |
| 20260510090522 | 12 | 123 | 0.0 | 0.0 | 0.00 | 0.00 | 0.00 | 95 | 1010.9 |
| 20260510090022 | 12 | 25 | 0.0 | 0.0 | 0.00 | 0.00 | 0.00 | 95 | 1010.9 |
| 20260510085521 | 12 | 25 | 0.0 | 0.0 | 0.00 | 0.00 | 0.00 | 95 | 1010.9 |
| 20260510085021 | 12 | 126 | 1.6 | 0.0 | 0.00 | 0.00 | 0.00 | 95 | 1010.9 |
| 20260510084521 | 12 | 126 | 1.6 | 0.0 | 0.00 | 0.00 | 0.00 | 95 | 1010.9 |
| 20260510084022 | 12 | 121 | 0.0 | 0.0 | 0.00 | 0.00 | 0.00 | 95 | 1010.9 |
| 20260510083521 | 12 | 121 | 0.0 | 0.0 | 0.00 | 0.00 | 0.00 | 95 | 1010.9 |
| 20260510083021 | 12 | 134 | 0.0 | 0.0 | 0.00 | 0.00 | 0.00 | 95 | 1010.9 |
| 20260510082521 | 12 | 134 | 0.0 | 0.0 | 0.00 | 0.00 | 0.00 | 95 | 1011.0 |
| 20260510082024 | 12 | 134 | 1.6 | 0.0 | 0.00 | 0.00 | 0.00 | 95 | 1011.0 |
| 20260510081533 | 12 | 136 | 1.6 | 0.0 | 0.00 | 0.00 | 0.00 | 95 | 1011.0 |
| 20260510081019 | 12 | 134 | 1.6 | 0.0 | 0.00 | 0.00 | 0.00 | 95 | 1011.3 |
| 20260510080518 | 12 | 119 | 0.0 | 0.0 | 0.00 | 0.00 | 0.00 | 95 | 1011.3 |
| 20260510080025 | 12 | 119 | 0.0 | 0.0 | 0.00 | 0.00 | 0.00 | 95 | 1011.3 |
| 20260510075521 | 12 | 119 | 1.6 | 0.0 | 0.00 | 0.00 | 0.00 | 95 | 1011.4 |
| 20260510075018 | 12 | 119 | 1.6 | 0.0 | 0.00 | 0.00 | 0.00 | 95 | 1011.4 |
| 20260510074518 | 12 | 119 | 1.6 | 0.0 | 0.00 | 0.00 | 0.00 | 95 | 1011.4 |
| 20260510074017 | 12 | 98 | 1.6 | 0.0 | 0.00 | 0.00 | 0.00 | 95 | 1011.6 |
| 20260510073517 | 12 | 141 | 1.6 | 0.0 | 0.00 | 0.00 | 0.00 | 95 | 1011.6 |
| 20260510073017 | 12 | 123 | 1.6 | 0.0 | 0.00 | 0.00 | 0.00 | 95 | 1011.6 |
| 20260510072517 | 12 | 150 | 1.6 | 0.0 | 0.00 | 0.00 | 0.00 | 95 | 1011.6 |
| 20260510072017 | 12 | 146 | 1.6 | 0.0 | 0.00 | 0.00 | 0.00 | 95 | 1011.6 |
| 20260510071516 | 12 | 141 | 1.6 | 0.0 | 0.00 | 0.00 | 0.00 | 95 | 1011.6 |
| 20260510071015 | 12 | 141 | 1.6 | 0.0 | 0.00 | 0.00 | 0.00 | 95 | 1011.6 |
| 20260510070518 | 12 | 150 | 1.6 | 0.0 | 0.00 | 0.00 | 0.00 | 95 | 1011.6 |
| 20260510070016 | 12 | 190 | 0.0 | 0.0 | 0.00 | 0.00 | 0.00 | 95 | 1011.6 |
| 20260510065515 | 12 | 153 | 1.6 | 0.0 | 0.00 | 0.00 | 0.00 | 94 | 1011.6 |
| 20260510065015 | 12 | 125 | 1.6 | 0.0 | 0.00 | 0.00 | 0.00 | 94 | 1011.6 |
| 20260510064519 | 12 | 127 | 1.6 | 0.0 | 0.00 | 0.00 | 0.00 | 94 | 1011.6 |
| 20260510064014 | 12 | 122 | 1.6 | 0.0 | 0.00 | 0.00 | 0.00 | 94 | 1011.6 |
| 20260510063514 | 12 | 92 | 1.6 | 0.0 | 0.00 | 0.00 | 0.00 | 94 | 1011.6 |
| 20260510063017 | 12 | 88 | 1.6 | 0.0 | 0.00 | 0.00 | 0.00 | 94 | 1011.6 |
| 20260510062513 | 12 | 61 | 1.6 | 0.0 | 0.00 | 0.00 | 0.00 | 94 | 1011.5 |
| 20260510062018 | 12 | 65 | 1.6 | 0.0 | 0.00 | 0.00 | 0.00 | 94 | 1011.5 |
| 20260510061523 | 12 | 54 | 1.6 | 0.0 | 0.00 | 0.00 | 0.00 | 94 | 1011.5 |
| 20260510061014 | 12 | 54 | 1.6 | 0.0 | 0.00 | 0.00 | 0.00 | 94 | 1011.6 |
| 20260510060517 | 12 | 54 | 1.6 | 0.0 | 0.00 | 0.00 | 0.00 | 94 | 1011.6 |
| 20260510060012 | 12 | 115 | 0.0 | 0.0 | 0.00 | 0.00 | 0.00 | 94 | 1011.6 |
| 20260510055512 | 12 | 115 | 0.0 | 0.0 | 0.00 | 0.00 | 0.00 | 94 | 1011.7 |
| 20260510055013 | 12 | 115 | 1.6 | 0.0 | 0.00 | 0.00 | 0.00 | 94 | 1011.7 |
| 20260510054513 | 12 | 130 | 0.0 | 0.0 | 0.00 | 0.00 | 0.00 | 94 | 1011.7 |
| 20260510054012 | 12 | 186 | 0.0 | 0.0 | 0.00 | 0.00 | 0.00 | 94 | 1011.7 |
| 20260510053512 | 12 | 186 | 0.0 | 0.0 | 0.00 | 0.00 | 0.00 | 94 | 1011.7 |
| 20260510053012 | 12 | 186 | 1.6 | 0.0 | 0.00 | 0.00 | 0.00 | 94 | 1011.7 |
| 20260510052512 | 12 | 186 | 1.6 | 0.0 | 0.00 | 0.00 | 0.00 | 94 | 1011.7 |
| 20260510052012 | 12 | 179 | 1.6 | 0.0 | 0.00 | 0.00 | 0.00 | 94 | 1011.7 |
| 20260510051526 | 12 | 179 | 0.0 | 0.0 | 0.00 | 0.00 | 0.00 | 94 | 1011.7 |
| 20260510051012 | 12 | 179 | 0.0 | 0.0 | 0.00 | 0.00 | 0.00 | 94 | 1011.8 |
| 20260510050511 | 12 | 179 | 0.0 | 0.0 | 0.00 | 0.00 | 0.00 | 93 | 1011.8 |
| 20260510050011 | 12 | 179 | 0.0 | 0.0 | 0.00 | 0.00 | 0.00 | 93 | 1011.8 |
| 20260510045515 | 12 | 179 | 1.6 | 0.0 | 0.00 | 0.00 | 0.00 | 93 | 1011.8 |
| 20260510045011 | 12 | 179 | 1.6 | 0.0 | 0.00 | 0.00 | 0.00 | 93 | 1011.8 |
| 20260510044512 | 12 | 211 | 0.0 | 0.0 | 0.00 | 0.00 | 0.00 | 93 | 1011.8 |
| 20260510044011 | 13 | 225 | 0.0 | 0.0 | 0.00 | 0.00 | 0.00 | 93 | 1011.6 |
| 20260510043511 | 13 | 225 | 0.0 | 0.0 | 0.00 | 0.00 | 0.00 | 93 | 1011.6 |
| 20260510043019 | 13 | 225 | 0.0 | 0.0 | 0.00 | 0.00 | 0.00 | 93 | 1011.6 |
| 20260510042511 | 13 | 225 | 0.0 | 0.0 | 0.00 | 0.00 | 0.00 | 93 | 1011.5 |
| 20260510042010 | 13 | 225 | 0.0 | 0.0 | 0.00 | 0.00 | 0.00 | 93 | 1011.5 |
| 20260510041510 | 13 | 225 | 0.0 | 0.0 | 0.00 | 0.00 | 0.00 | 93 | 1011.5 |
| 20260510041010 | 13 | 225 | 0.0 | 0.0 | 0.00 | 0.00 | 0.00 | 92 | 1011.3 |
| 20260510040510 | 13 | 225 | 0.0 | 0.0 | 0.00 | 0.00 | 0.00 | 92 | 1011.3 |
| 20260510040010 | 13 | 225 | 0.0 | 0.0 | 0.00 | 0.00 | 0.00 | 92 | 1011.3 |
| 20260510035509 | 13 | 225 | 0.0 | 0.0 | 0.00 | 0.00 | 0.00 | 92 | 1011.2 |
| 20260510035013 | 13 | 225 | 0.0 | 0.0 | 0.00 | 0.00 | 0.00 | 92 | 1011.2 |
| 20260510034509 | 13 | 225 | 0.0 | 0.0 | 0.00 | 0.00 | 0.00 | 92 | 1011.2 |
| 20260510034012 | 13 | 225 | 0.0 | 0.0 | 0.00 | 0.00 | 0.00 | 92 | 1010.9 |
| 20260510033509 | 13 | 225 | 0.0 | 0.0 | 0.00 | 0.00 | 0.00 | 92 | 1010.9 |
| 20260510033009 | 13 | 225 | 0.0 | 0.0 | 0.00 | 0.00 | 0.00 | 92 | 1010.9 |
| 20260510032512 | 13 | 225 | 0.0 | 0.0 | 0.00 | 0.00 | 0.00 | 91 | 1010.7 |
| 20260510032009 | 13 | 225 | 0.0 | 0.0 | 0.00 | 0.00 | 0.00 | 91 | 1010.7 |
| 20260510031509 | 14 | 225 | 0.0 | 0.0 | 0.00 | 0.00 | 0.00 | 90 | 1010.7 |
| 20260510031009 | 14 | 225 | 1.6 | 0.0 | 0.00 | 0.00 | 0.00 | 90 | 1010.6 |
| 20260510030510 | 14 | 225 | 1.6 | 0.0 | 0.00 | 0.00 | 0.00 | 89 | 1010.6 |
| 20260510030012 | 15 | 203 | 0.0 | 0.0 | 0.00 | 0.00 | 0.00 | 88 | 1010.6 |
| 20260510025508 | 15 | 203 | 1.6 | 0.0 | 0.00 | 0.00 | 0.00 | 88 | 1010.4 |
| 20260510025008 | 15 | 203 | 1.6 | 0.0 | 0.00 | 0.00 | 0.00 | 87 | 1010.4 |
| 20260510024508 | 15 | 200 | 1.6 | 0.0 | 0.00 | 0.00 | 0.00 | 87 | 1010.4 |
| 20260510024009 | 15 | 270 | 0.0 | 0.0 | 0.00 | 0.00 | 0.00 | 86 | 1010.3 |
| 20260510023507 | 16 | 270 | 0.0 | 0.0 | 0.00 | 0.00 | 0.00 | 85 | 1010.3 |
| 20260510023007 | 16 | 270 | 1.6 | 0.0 | 0.00 | 0.00 | 0.00 | 84 | 1010.3 |
| 20260510022511 | 16 | 197 | 1.6 | 0.0 | 0.00 | 0.00 | 0.00 | 83 | 1010.2 |
| 20260510022008 | 17 | 197 | 3.2 | 0.0 | 0.00 | 0.00 | 0.00 | 83 | 1010.2 |
| 20260510021513 | 17 | 227 | 1.6 | 0.0 | 0.00 | 0.00 | 0.00 | 82 | 1010.2 |
| 20260510021007 | 17 | 205 | 1.6 | 0.0 | 0.00 | 0.00 | 0.00 | 82 | 1010.0 |
| 20260510020506 | 17 | 165 | 1.6 | 0.0 | 0.00 | 0.00 | 0.00 | 82 | 1010.0 |
| 20260510020006 | 17 | 165 | 0.0 | 0.0 | 0.00 | 0.00 | 0.00 | 82 | 1009.9 |
| 20260510015508 | 17 | 190 | 1.6 | 0.0 | 0.00 | 0.00 | 0.00 | 82 | 1009.9 |
| 20260510015006 | 17 | 156 | 3.2 | 0.0 | 0.00 | 0.00 | 0.00 | 81 | 1009.9 |
| 20260510014506 | 18 | 175 | 1.6 | 0.0 | 0.00 | 0.00 | 0.00 | 80 | 1009.7 |
| 20260510014006 | 18 | 219 | 1.6 | 0.0 | 0.00 | 0.00 | 0.00 | 79 | 1009.7 |
| 20260510013506 | 18 | 193 | 1.6 | 0.0 | 0.00 | 0.00 | 0.00 | 78 | 1009.7 |
| 20260510013006 | 18 | 169 | 1.6 | 0.0 | 0.00 | 0.00 | 0.00 | 78 | 1009.7 |
| 20260510012505 | 19 | 274 | 1.6 | 0.0 | 0.00 | 0.00 | 0.00 | 78 | 1009.7 |
| 20260510012005 | 19 | 165 | 3.2 | 0.0 | 0.00 | 0.00 | 0.00 | 77 | 1009.7 |
| 20260510011506 | 19 | 180 | 3.2 | 0.0 | 0.00 | 0.00 | 0.00 | 77 | 1009.7 |
| 20260510011005 | 20 | 179 | 3.2 | 0.0 | 0.00 | 0.00 | 0.00 | 76 | 1009.7 |
| 20260510010505 | 20 | 169 | 3.2 | 0.0 | 0.00 | 0.00 | 0.00 | 77 | 1009.7 |
| 20260510010005 | 19 | 168 | 3.2 | 0.0 | 0.00 | 0.00 | 0.00 | 77 | 1009.7 |
| 20260510005505 | 19 | 186 | 3.2 | 0.0 | 0.00 | 0.00 | 0.00 | 77 | 1009.7 |
| 20260510005006 | 19 | 161 | 3.2 | 0.0 | 0.00 | 0.00 | 0.00 | 78 | 1009.7 |
| 20260510004504 | 19 | 164 | 3.2 | 0.0 | 0.00 | 0.00 | 0.00 | 79 | 1009.8 |
| 20260510004007 | 19 | 156 | 3.2 | 0.0 | 0.00 | 0.00 | 0.00 | 80 | 1009.8 |
| 20260510003504 | 19 | 195 | 3.2 | 0.0 | 0.00 | 0.00 | 0.00 | 78 | 1009.8 |
| 20260510003004 | 19 | 153 | 4.8 | 0.0 | 0.00 | 0.00 | 0.00 | 78 | 1009.9 |
| 20260510002505 | 19 | 190 | 4.8 | 0.0 | 0.00 | 0.00 | 0.00 | 77 | 1009.9 |
| 20260510002003 | 20 | 159 | 4.8 | 0.0 | 0.00 | 0.00 | 0.00 | 77 | 1009.9 |
| 20260510001506 | 20 | 200 | 4.8 | 0.0 | 0.00 | 0.00 | 0.00 | 77 | 1009.9 |
| 20260510001003 | 20 | 165 | 3.2 | 0.0 | 0.00 | 0.00 | 0.00 | 76 | 1009.9 |
| 20260510000502 | 20 | 211 | 3.2 | 0.0 | 0.00 | 0.00 | 0.00 | 76 | 1009.9 |
| 20260510000004 | 20 | 126 | 3.2 | 0.0 | 0.00 | 0.00 | 0.00 | 78 | 1010.0 |
| 20260509235501 | 20 | 133 | 3.2 | 0.0 | 0.00 | 0.00 | 0.00 | 77 | 1010.0 |
| 20260509235001 | 20 | 126 | 3.2 | 0.0 | 0.00 | 0.00 | 0.00 | 77 | 1010.0 |
| 20260509234600 | 20 | 180 | 4.8 | 0.0 | 0.00 | 0.00 | 0.00 | 78 | 1010.0 |
| 20260509234100 | 19 | 182 | 4.8 | 0.0 | 0.00 | 0.00 | 0.00 | 78 | 1010.1 |
| 20260509233600 | 19 | 126 | 3.2 | 0.0 | 0.00 | 0.00 | 0.00 | 79 | 1010.1 |
| 20260509233059 | 18 | 136 | 3.2 | 0.0 | 0.00 | 0.00 | 0.00 | 80 | 1010.1 |
| 20260509232600 | 18 | 173 | 3.2 | 0.0 | 0.00 | 0.00 | 0.00 | 80 | 1010.2 |
| 20260509232059 | 18 | 161 | 3.2 | 0.0 | 0.00 | 0.00 | 0.00 | 81 | 1010.2 |
| 20260509231609 | 18 | 188 | 3.2 | 0.0 | 0.00 | 0.00 | 0.00 | 79 | 1010.2 |
| 20260509231059 | 18 | 190 | 3.2 | 0.0 | 0.00 | 0.00 | 0.00 | 80 | 1010.1 |
| 20260509230604 | 18 | 155 | 4.8 | 0.0 | 0.00 | 0.00 | 0.00 | 81 | 1010.1 |
| 20260509230058 | 18 | 156 | 4.8 | 0.0 | 0.00 | 0.00 | 0.00 | 80 | 1010.1 |
| 20260509225558 | 18 | 196 | 4.8 | 0.0 | 0.00 | 0.00 | 0.00 | 80 | 1010.2 |
| 20260509225057 | 19 | 182 | 4.8 | 0.0 | 0.00 | 0.00 | 0.00 | 79 | 1010.2 |
| 20260509224558 | 19 | 213 | 4.8 | 0.0 | 0.00 | 0.00 | 0.00 | 79 | 1010.2 |
| 20260509224056 | 19 | 147 | 3.2 | 0.0 | 0.00 | 0.00 | 0.00 | 80 | 1010.3 |
| 20260509223555 | 19 | 212 | 4.8 | 0.0 | 0.00 | 0.00 | 0.00 | 81 | 1010.3 |
| 20260509223055 | 18 | 192 | 4.8 | 0.0 | 0.00 | 0.00 | 0.00 | 81 | 1010.3 |
| 20260509222552 | 18 | 207 | 4.8 | 0.0 | 0.00 | 0.00 | 0.00 | 82 | 1010.8 |
| 20260509222051 | 18 | 211 | 3.2 | 0.0 | 0.00 | 0.00 | 0.00 | 83 | 1010.8 |
| 20260509221551 | 18 | 166 | 4.8 | 0.0 | 0.00 | 0.00 | 0.00 | 84 | 1010.8 |
| 20260509221052 | 18 | 167 | 4.8 | 0.0 | 0.00 | 0.00 | 0.00 | 84 | 1010.9 |
| 20260509220551 | 17 | 211 | 4.8 | 0.0 | 0.00 | 0.00 | 0.00 | 85 | 1010.9 |
| 20260509220050 | 17 | 184 | 4.8 | 0.0 | 0.00 | 0.00 | 0.00 | 85 | 1010.9 |
| 20260509215554 | 17 | 190 | 4.8 | 0.0 | 0.00 | 0.00 | 0.00 | 84 | 1011.0 |
| 20260509215050 | 17 | 163 | 4.8 | 0.0 | 0.00 | 0.00 | 0.00 | 86 | 1011.0 |
| 20260509214549 | 17 | 181 | 4.8 | 0.0 | 0.00 | 0.00 | 0.00 | 85 | 1011.0 |
| 20260509214053 | 17 | 175 | 6.4 | 0.0 | 0.00 | 0.00 | 0.00 | 84 | 1011.1 |
| 20260509213549 | 18 | 157 | 6.4 | 0.0 | 0.00 | 0.00 | 0.00 | 85 | 1011.1 |
| 20260509213049 | 18 | 131 | 4.8 | 0.0 | 0.00 | 0.00 | 0.00 | 84 | 1011.1 |
| 20260509212548 | 18 | 136 | 4.8 | 0.0 | 0.00 | 0.00 | 0.00 | 84 | 1011.3 |
| 20260509212049 | 18 | 142 | 4.8 | 0.0 | 0.00 | 0.00 | 0.00 | 83 | 1011.3 |
| 20260509211555 | 18 | 160 | 4.8 | 0.0 | 0.00 | 0.00 | 0.00 | 83 | 1011.3 |
| 20260509211048 | 18 | 206 | 4.8 | 0.0 | 0.00 | 0.00 | 0.00 | 83 | 1011.4 |
| 20260509210548 | 18 | 239 | 4.8 | 0.0 | 0.00 | 0.00 | 0.00 | 83 | 1011.4 |
| 20260509210054 | 18 | 212 | 4.8 | 0.0 | 0.00 | 0.00 | 0.00 | 83 | 1011.4 |
| 20260509205545 | 18 | 188 | 4.8 | 0.0 | 0.00 | 0.00 | 0.00 | 84 | 1011.4 |
| 20260509205044 | 18 | 148 | 4.8 | 0.0 | 0.00 | 0.00 | 0.00 | 85 | 1011.4 |
| 20260509204546 | 17 | 175 | 4.8 | 0.0 | 0.00 | 0.00 | 0.00 | 86 | 1011.4 |
| 20260509204044 | 17 | 160 | 4.8 | 0.0 | 0.00 | 0.00 | 0.00 | 85 | 1011.5 |
| 20260509203545 | 17 | 178 | 4.8 | 0.0 | 0.00 | 0.00 | 0.00 | 85 | 1011.5 |
| 20260509203042 | 17 | 164 | 4.8 | 0.0 | 0.00 | 0.00 | 0.00 | 87 | 1011.5 |
| 20260509202541 | 17 | 198 | 4.8 | 0.0 | 0.00 | 0.00 | 0.00 | 88 | 1011.7 |
| 20260509202041 | 17 | 171 | 4.8 | 0.0 | 0.00 | 0.00 | 0.00 | 89 | 1011.7 |
| 20260509201539 | 17 | 181 | 4.8 | 0.0 | 0.00 | 0.00 | 0.00 | 89 | 1011.7 |
| 20260509201037 | 16 | 155 | 4.8 | 0.0 | 0.00 | 0.00 | 0.00 | 90 | 1011.9 |
| 20260509200538 | 16 | 211 | 6.4 | 0.0 | 0.00 | 0.00 | 0.00 | 89 | 1011.9 |
| 20260509200043 | 16 | 153 | 4.8 | 0.0 | 0.00 | 0.00 | 0.00 | 90 | 1011.9 |
| 20260509195538 | 16 | 167 | 4.8 | 0.0 | 0.00 | 0.00 | 0.00 | 90 | 1012.1 |
| 20260509195033 | 16 | 180 | 4.8 | 0.0 | 0.00 | 0.00 | 0.00 | 91 | 1012.1 |
| 20260509194535 | 16 | 161 | 4.8 | 0.0 | 0.00 | 0.00 | 0.00 | 90 | 1012.1 |
| 20260509194035 | 16 | 205 | 4.8 | 0.0 | 0.00 | 0.00 | 0.00 | 91 | 1012.2 |
| 20260509193533 | 16 | 198 | 6.4 | 0.0 | 0.00 | 0.00 | 0.00 | 91 | 1012.2 |
| 20260509193032 | 16 | 159 | 6.4 | 0.0 | 0.00 | 0.00 | 0.00 | 91 | 1012.2 |
| 20260509192531 | 16 | 179 | 6.4 | 0.0 | 0.00 | 0.00 | 0.00 | 92 | 1012.3 |
| 20260509192031 | 16 | 247 | 6.4 | 0.0 | 0.00 | 0.00 | 0.00 | 92 | 1012.3 |
| 20260509191530 | 16 | 169 | 4.8 | 0.0 | 0.00 | 0.00 | 0.00 | 92 | 1012.3 |
| 20260509191033 | 16 | 207 | 4.8 | 0.0 | 0.00 | 0.00 | 0.00 | 93 | 1012.2 |
| 20260509190531 | 16 | 159 | 4.8 | 0.0 | 0.00 | 0.00 | 0.00 | 94 | 1012.2 |
| 20260509190035 | 16 | 151 | 4.8 | 0.0 | 0.00 | 0.00 | 0.00 | 94 | 1012.2 |
| 20260509185531 | 16 | 195 | 4.8 | 0.0 | 0.00 | 0.00 | 0.00 | 94 | 1012.4 |
| 20260509185031 | 15 | 196 | 4.8 | 0.0 | 0.00 | 0.00 | 0.00 | 95 | 1012.4 |
| 20260509184534 | 15 | 204 | 4.8 | 0.0 | 0.00 | 0.00 | 0.00 | 95 | 1012.4 |
| 20260509184027 | 15 | 157 | 4.8 | 0.0 | 0.00 | 0.00 | 0.00 | 95 | 1012.5 |
| 20260509183526 | 15 | 161 | 4.8 | 0.0 | 0.00 | 0.00 | 0.00 | 96 | 1012.5 |
| 20260509183025 | 15 | 139 | 4.8 | 0.0 | 0.00 | 0.00 | 0.00 | 96 | 1012.5 |
| 20260509182524 | 15 | 179 | 4.8 | 0.0 | 0.00 | 0.00 | 0.00 | 96 | 1012.6 |
| 20260509182023 | 15 | 155 | 4.8 | 0.0 | 0.00 | 0.00 | 0.00 | 96 | 1012.6 |
| 20260509181523 | 15 | 175 | 3.2 | 0.0 | 0.00 | 0.00 | 0.00 | 96 | 1012.6 |
| 20260509181023 | 15 | 215 | 3.2 | 0.0 | 0.00 | 0.00 | 0.00 | 96 | 1012.7 |
| 20260509180522 | 14 | 164 | 3.2 | 0.0 | 0.00 | 0.00 | 0.00 | 96 | 1012.7 |
| 20260509180023 | 14 | 118 | 3.2 | 0.0 | 0.00 | 0.00 | 0.00 | 96 | 1012.7 |
| 20260509175518 | 13 | 163 | 3.2 | 0.0 | 0.00 | 0.00 | 0.00 | 96 | 1012.8 |
| 20260509175018 | 13 | 176 | 3.2 | 0.0 | 0.00 | 0.00 | 0.00 | 96 | 1012.8 |
| 20260509174519 | 13 | 183 | 1.6 | 0.0 | 0.00 | 0.00 | 0.00 | 96 | 1012.8 |
| 20260509174017 | 13 | 157 | 1.6 | 0.0 | 0.00 | 0.00 | 0.00 | 96 | 1012.8 |
| 20260509173517 | 13 | 173 | 3.2 | 0.0 | 0.00 | 0.00 | 0.00 | 96 | 1012.8 |
| 20260509173049 | 13 | 165 | 3.2 | 0.0 | 0.00 | 0.00 | 0.00 | 96 | 1012.8 |
| 20260509172517 | 13 | 201 | 3.2 | 0.0 | 0.00 | 0.00 | 0.00 | 96 | 1012.7 |
| 20260509172017 | 13 | 141 | 1.6 | 0.0 | 0.00 | 0.00 | 0.00 | 96 | 1012.7 |
| 20260509171526 | 13 | 174 | 1.6 | 0.0 | 0.00 | 0.00 | 0.00 | 96 | 1012.7 |
| 20260509171016 | 13 | 175 | 1.6 | 0.0 | 0.00 | 0.00 | 0.00 | 96 | 1012.4 |
| 20260509170516 | 13 | 28 | 3.2 | 0.0 | 0.00 | 0.00 | 0.00 | 96 | 1012.4 |
| 20260509170017 | 13 | 5 | 3.2 | 0.0 | 0.00 | 0.00 | 0.00 | 96 | 1012.4 |
| 20260509165515 | 13 | 36 | 3.2 | 0.0 | 0.00 | 0.00 | 0.00 | 96 | 1012.4 |
| 20260509165015 | 13 | 92 | 1.6 | 0.0 | 0.00 | 0.00 | 0.00 | 96 | 1012.4 |
| 20260509164517 | 13 | 27 | 1.6 | 0.0 | 0.00 | 0.00 | 0.00 | 96 | 1012.4 |
| 20260509164016 | 13 | 69 | 1.6 | 0.0 | 0.00 | 0.00 | 0.00 | 96 | 1012.5 |
| 20260509163513 | 13 | 73 | 1.6 | 0.0 | 0.00 | 0.00 | 0.00 | 96 | 1012.5 |
| 20260509163021 | 13 | 5 | 3.2 | 0.0 | 0.00 | 0.00 | 0.00 | 96 | 1012.5 |
| 20260509162513 | 13 | 30 | 3.2 | 0.0 | 0.00 | 0.00 | 0.00 | 96 | 1012.5 |
| 20260509162012 | 13 | 132 | 3.2 | 0.0 | 0.00 | 0.00 | 0.00 | 96 | 1012.5 |
| 20260509161512 | 13 | 105 | 3.2 | 0.0 | 0.00 | 0.00 | 0.00 | 96 | 1012.5 |
| 20260509161012 | 13 | 63 | 3.2 | 0.0 | 0.00 | 0.00 | 0.00 | 96 | 1012.4 |
| 20260509160512 | 13 | 57 | 1.6 | 0.0 | 0.00 | 0.00 | 0.00 | 96 | 1012.4 |
| 20260509160020 | 13 | 5 | 1.6 | 0.0 | 0.00 | 0.00 | 0.00 | 96 | 1012.4 |
| 20260509155510 | 13 | 32 | 1.6 | 0.0 | 0.00 | 0.00 | 0.00 | 96 | 1012.4 |
| 20260509155013 | 12 | 42 | 3.2 | 0.0 | 0.00 | 0.00 | 0.00 | 96 | 1012.4 |
| 20260509154510 | 12 | 44 | 4.8 | 0.0 | 0.00 | 0.00 | 0.00 | 96 | 1012.4 |
| 20260509154009 | 12 | 64 | 4.8 | 0.0 | 0.00 | 0.00 | 0.00 | 96 | 1012.5 |
| 20260509153509 | 12 | 63 | 3.2 | 0.0 | 0.00 | 0.00 | 0.00 | 96 | 1012.5 |
| 20260509153016 | 12 | 79 | 3.2 | 0.0 | 0.00 | 0.00 | 0.00 | 96 | 1012.5 |
| 20260509152509 | 12 | 69 | 3.2 | 0.0 | 0.00 | 0.00 | 0.00 | 96 | 1012.5 |
| 20260509152009 | 12 | 34 | 3.2 | 0.0 | 0.00 | 0.00 | 0.00 | 96 | 1012.5 |
| 20260509151509 | 12 | 61 | 3.2 | 0.0 | 0.00 | 0.00 | 0.00 | 96 | 1012.5 |
| 20260509151011 | 12 | 132 | 3.2 | 0.0 | 0.00 | 0.00 | 0.00 | 96 | 1012.4 |
| 20260509150508 | 12 | 50 | 3.2 | 0.0 | 0.00 | 0.00 | 0.00 | 96 | 1012.4 |
| 20260509150010 | 12 | 91 | 1.6 | 0.0 | 0.00 | 0.00 | 0.00 | 96 | 1012.4 |
| 20260509145508 | 12 | 26 | 1.6 | 0.0 | 0.00 | 0.00 | 0.00 | 96 | 1012.4 |
| 20260509145008 | 12 | 27 | 3.2 | 0.0 | 0.00 | 0.00 | 0.00 | 96 | 1012.4 |
| 20260509144507 | 12 | 24 | 4.8 | 0.0 | 0.00 | 0.00 | 0.00 | 96 | 1012.4 |
| 20260509144007 | 12 | 21 | 3.2 | 0.0 | 0.00 | 0.00 | 0.00 | 96 | 1012.3 |
| 20260509143509 | 12 | 67 | 1.6 | 0.0 | 0.00 | 0.00 | 0.00 | 96 | 1012.3 |
| 20260509143011 | 12 | 94 | 1.6 | 0.0 | 0.00 | 0.00 | 0.00 | 96 | 1012.3 |
| 20260509142506 | 12 | 30 | 3.2 | 0.0 | 0.00 | 0.00 | 0.00 | 96 | 1012.3 |
| 20260509142007 | 12 | 34 | 3.2 | 0.0 | 0.00 | 0.00 | 0.00 | 96 | 1012.3 |
| 20260509141507 | 12 | 67 | 3.2 | 0.0 | 0.00 | 0.00 | 0.00 | 96 | 1012.3 |
| 20260509141008 | 12 | 90 | 3.2 | 0.0 | 0.00 | 0.00 | 0.00 | 96 | 1012.2 |
| 20260509140506 | 12 | 71 | 3.2 | 0.0 | 0.00 | 0.00 | 0.00 | 96 | 1012.2 |
| 20260509140006 | 12 | 80 | 3.2 | 0.0 | 0.00 | 0.00 | 0.00 | 96 | 1012.2 |
| 20260509135506 | 12 | 26 | 3.2 | 0.0 | 0.00 | 0.00 | 0.00 | 96 | 1012.2 |
| 20260509135006 | 12 | 103 | 3.2 | 0.0 | 0.00 | 0.00 | 0.00 | 96 | 1012.2 |
| 20260509134506 | 12 | 24 | 3.2 | 0.0 | 0.00 | 0.00 | 0.00 | 96 | 1012.2 |
| 20260509134008 | 12 | 31 | 3.2 | 0.0 | 0.00 | 0.00 | 0.00 | 96 | 1012.1 |
| 20260509133506 | 12 | 37 | 3.2 | 0.0 | 0.00 | 0.00 | 0.00 | 96 | 1012.1 |
| 20260509133005 | 12 | 24 | 3.2 | 0.0 | 0.00 | 0.00 | 0.00 | 96 | 1012.1 |
| 20260509132505 | 12 | 55 | 3.2 | 0.0 | 0.00 | 0.00 | 0.00 | 96 | 1011.8 |
| 20260509132006 | 12 | 31 | 3.2 | 0.0 | 0.00 | 0.00 | 0.00 | 96 | 1011.8 |
| 20260509131505 | 12 | 63 | 4.8 | 0.0 | 0.00 | 0.00 | 0.00 | 96 | 1011.8 |
| 20260509131005 | 12 | 73 | 6.4 | 0.0 | 0.00 | 0.00 | 0.00 | 96 | 1011.7 |
| 20260509130505 | 12 | 30 | 4.8 | 0.0 | 0.00 | 0.00 | 0.00 | 96 | 1011.7 |
| 20260509130013 | 12 | 48 | 3.2 | 0.0 | 0.00 | 0.00 | 0.00 | 96 | 1011.5 |
| 20260509125505 | 12 | 69 | 3.2 | 0.0 | 0.00 | 0.00 | 0.00 | 96 | 1011.5 |
| 20260509125004 | 12 | 61 | 4.8 | 0.0 | 0.00 | 0.00 | 0.00 | 96 | 1011.5 |
| 20260509124515 | 12 | 67 | 4.8 | 0.0 | 0.00 | 0.00 | 0.00 | 96 | 1011.6 |
| 20260509124003 | 12 | 22 | 3.2 | 0.0 | 0.00 | 0.00 | 0.00 | 96 | 1011.6 |
| 20260509123504 | 12 | 59 | 3.2 | 0.0 | 0.00 | 0.00 | 0.00 | 96 | 1011.6 |
| 20260509123004 | 12 | 55 | 4.8 | 0.0 | 0.00 | 0.00 | 0.00 | 96 | 1011.7 |
| 20260509122504 | 12 | 88 | 4.8 | 0.0 | 0.00 | 0.00 | 0.00 | 96 | 1011.7 |
| 20260509122002 | 12 | 36 | 3.2 | 0.0 | 0.00 | 0.00 | 0.00 | 96 | 1011.7 |
| 20260509121502 | 12 | 82 | 3.2 | 0.0 | 0.00 | 0.00 | 0.00 | 96 | 1011.4 |
| 20260509121003 | 12 | 55 | 4.8 | 0.0 | 0.00 | 0.00 | 0.00 | 96 | 1011.4 |
| 20260509120501 | 12 | 78 | 1.6 | 0.0 | 0.00 | 0.00 | 0.00 | 96 | 1011.4 |
| 20260509120002 | 12 | 47 | 1.6 | 0.0 | 0.00 | 0.00 | 0.00 | 96 | 1011.5 |
| 20260509115500 | 12 | 25 | 3.2 | 0.0 | 0.00 | 0.00 | 0.00 | 96 | 1011.5 |
| 20260509115002 | 12 | 5 | 3.2 | 0.0 | 0.00 | 0.00 | 0.00 | 96 | 1011.5 |
| 20260509114627 | 12 | 22 | 3.2 | 0.0 | 0.00 | 0.00 | 0.00 | 95 | 1011.5 |
| 20260509114100 | 12 | 49 | 3.2 | 0.0 | 0.00 | 0.00 | 0.00 | 95 | 1011.5 |
| 20260509113600 | 12 | 355 | 3.2 | 0.0 | 0.00 | 0.00 | 0.00 | 95 | 1011.5 |
| 20260509113134 | 12 | 34 | 3.2 | 0.0 | 0.00 | 0.00 | 0.00 | 95 | 1011.5 |
| 20260509112600 | 12 | 51 | 3.2 | 0.0 | 0.00 | 0.00 | 0.00 | 96 | 1011.4 |
| 20260509112058 | 12 | 75 | 1.6 | 0.0 | 0.00 | 0.00 | 0.00 | 95 | 1011.4 |
| 20260509111558 | 12 | 71 | 1.6 | 0.0 | 0.00 | 0.00 | 0.00 | 95 | 1011.4 |
| 20260509111057 | 12 | 92 | 1.6 | 0.0 | 0.00 | 0.00 | 0.00 | 95 | 1011.4 |
| 20260509110557 | 12 | 99 | 1.6 | 0.0 | 0.00 | 0.00 | 0.00 | 95 | 1011.4 |